www.pogodaiklimat.ru

Погода и климат >> Архив погоды >> Индонезия >> Туал


ПОГОДА в Туале

  • Прогноз погоды в Туале
  • Монитор погоды в Туале

АРХИВ ПОГОДЫ в Туале

Время (UTC), дата Ветер
(напр.,м/с)
 
Видим.   Явления Облачность Т
(С)
Тd
(С)
f
(%)
Тe
(С)
Тes
(С)
Комфортность P
(гПа)
Po
(гПа)
Тmin
(С)
Tmax
(С)
R
(мм)
R24
(мм)
S
(см)
09 19.06 ЮВ 4 10 км 6/4 570 м
[Cu med, cong Ac trans Ci sp]
+27.4 +23.0 77 +37 +37 очень
душно
1009.9 1006.7
12 19.06 штиль 0 5000 м 9/5 570 м
[Cu Sc Ac trans Ci sp]
+23.6 +22.6 94 +31 +31 очень
душно
1011.2 1008.0 +29.8
15 19.06 ЮВ 3 4000 м слаб. дождь 9/6 540 м
[Cu Sc Ac trans Ci sp]
+24.6 +23.9 96 +34 +34 очень
душно
1011.1 1007.9 1
18 19.06 штиль 0 6000 м {дождь} 9/4 570 м
[Cu med, cong Ac trans Ci sp]
+23.4 +22.1 92 +32 +32 очень
душно
1010.5 1007.2 0.0
21 19.06 штиль 0 9000 м 6/1 570 м
[Cu med, cong Ac trans Ci sp]
+21.4 +20.7 96 +27 +27 душно 1010.8 1007.5
00 20.06 ЮВ 4 9000 м осадки на расстоянии 9/6 570 м
[Cu Sc Ac trans Ci sp]
+26.4 +22.8 81 +35 +36 очень
душно
1012.2 1008.9 +21.0
03 20.06 ЮВ 3 10 км 9/5 570 м
[Cu med, cong Ac trans Ci sp]
+29.0 +22.2 67 +38 +42 очень
душно
1011.0 1007.8
06 20.06 ЮВ 7 10 км 6/4 570 м
[Cu med, cong Ac trans Ci sp]
+29.0 +22.2 67 +38 +39 очень
душно
1009.8 1006.6
09 20.06 ЮВ 3 8000 м 8/5 570 м
[Cu med, cong Ac trans Ci sp]
+27.0 +23.1 79 +36 +36 очень
душно
1010.6 1007.3
12 20.06 ЮВ 3 5000 м 9/4 570 м
[Cu med, cong Ac trans Ci sp]
+26.0 +23.3 85 +35 +35 очень
душно
1012.6 1009.3 +30.0
15 20.06 ЮВ 3 5000 м 9/4 570 м
[Cu med, cong Ac trans Ci sp]
+25.6 +22.6 84 +34 +34 очень
душно
1012.8 1009.5
18 20.06 ЮВ 2 5000 м 9/4 570 м
[Cu med, cong Ac trans Ci sp]
+23.4 +22.1 92 +32 +32 очень
душно
1011.8 1008.5
21 20.06 В 5 9000 м 9/3 570 м
[Cu med, cong Ac trans Ci sp]
+25.2 +20.6 76 +31 +31 очень
душно
1011.7 1008.5
00 21.06 ЮВ 4 10 км 6/3 570 м
[Cu med, cong Ac trans Ci sp]
+25.6 +22.3 82 +33 +36 очень
душно
1012.3 1009.0 +24.8
03 21.06 ЮВ 6 10 км 6/4 570 м
[Cu med, cong Ac trans Ci sp]
+28.6 +21.1 64 +36 +39 очень
душно
1010.5 1007.3
06 21.06 ЮВ 6 10 км 8/5 570 м
[Cu med, cong Ac trans Ci sp]
+28.4 +21.2 65 +36 +37 очень
душно
1008.4 1005.2
09 21.06 ЮВ 4 8000 м 8/4 570 м
[Cu med, cong Ac trans Ci sp]
+26.8 +21.7 74 +34 +34 очень
душно
1009.7 1006.4
12 21.06 ЮВ 2 5000 м 8/3 570 м
[Cu med, cong Ac trans Ci sp]
+25.6 +21.6 79 +33 +33 очень
душно
1012.1 1008.9 +29.4
15 21.06 ЮВ 3 5000 м 6/4 570 м
[Cu med, cong Ac trans Ci sp]
+24.8 +21.7 83 +32 +32 очень
душно
1011.9 1008.6
18 21.06 Ю 3 5000 м 9/6 540 м
[Cu Sc Ac trans Ci sp]
+25.0 +22.9 88 +33 +33 очень
душно
1010.8 1007.5
21 21.06 ЮВ 2 8000 м 9/6 570 м
[Cu Sc Ac trans Ci sp]
+25.6 +23.2 87 +34 +34 очень
душно
1011.0 1007.7
00 22.06 ЮВ 4 7000 м в посл. час дождь 9/6 570 м
[Cu Sc Ac trans Ci sp]
+26.2 +24.7 91 +37 +38 очень
душно
1011.8 1008.5 +24.0 1
03 22.06 Ю 4 8000 м осадки на расстоянии 9/8 540 м
[Cu Sc Ac trans Ci sp]
+27.4 +24.5 84 +39 +40 очень
душно
1010.4 1007.1
06 22.06 В 4 6000 м слаб. дождь 9/8 540 м
[Cb cap As op Ci sp]
+27.2 +23.3 79 +37 +38 очень
душно
1008.8 1005.6 0.0
09 22.06 Ю 3 7000 м в посл. час дождь 9/5 540 м
[Cu Sc Ac As Ci sp]
+25.6 +23.8 90 +35 +35 очень
душно
1009.7 1006.4 1
12 22.06 ЮВ 2 5000 м {дождь} 9/5 540 м
[Cu Sc Ac trans Ci sp]
+25.6 +23.5 88 +35 +35 очень
душно
1011.2 1007.9 +28.6 1
15 22.06 ЮВ 2 5000 м осадки на расстоянии 9/5 540 м
[Cu Sc Ac trans Ci sp]
+24.6 +23.0 91 +33 +33 очень
душно
1011.7 1008.3
18 22.06 ЮВ 2 4000 м слаб. дождь 9/5 540 м
[Cb cap Ac As Ci sp]
+24.4 +23.7 96 +33 +33 очень
душно
1010.6 1007.3 4
21 22.06 ЮВ 3 5000 м {дождь} 9/5 540 м
[Cb cap Ac As Ci sp]
+25.0 +23.5 91 +34 +34 очень
душно
1011.0 1007.8 3
00 23.06 ЮВ 3 4000 м слаб. дождь 9/6 500 м
[Cb cap As op Ci sp]
+24.6 +23.6 94 +33 +35 очень
душно
1012.3 1009.1 +23.6 4 12
03 23.06 ЮВ 4 8000 м {дождь} 9/5 570 м
[Cu Sc Ac trans Ci sp]
+26.4 +24.3 88 +37 +40 очень
душно
1011.1 1007.8 2
06 23.06 ЮВ 6 9000 м 9/5 570 м
[Cu Sc Ac trans Ci sp]
+27.0 +22.8 78 +36 +37 очень
душно
1009.7 1006.5 2
09 23.06 ЮВ 5 8000 м 9/5 570 м
[Cu Sc Ac trans Ci sp]
+26.0 +23.3 85 +35 +35 очень
душно
1010.3 1007.1
12 23.06 ЮВ 3 5000 м 9/5 570 м
[Cu Sc Ac trans Ci sp]
+25.0 +24.6 98 +35 +35 очень
душно
1012.3 1009.1 +28.0
15 23.06 ЮВ 2 5000 м 9/5 570 м
[Cu Sc Ac trans Ci sp]
+25.8 +23.1 85 +34 +34 очень
душно
1012.3 1009.1
18 23.06 ЮВ 2 4000 м осадки на расстоянии 9/8 540 м
[Cu Sc Ac trans Ci sp]
+25.6 +22.6 84 +34 +34 очень
душно
1011.7 1008.4
21 23.06 ЮВ 4 5000 м осадки на расстоянии 9/6 540 м
[Cu Sc Ac trans Ci sp]
+25.4 +23.0 87 +34 +34 очень
душно
1012.2 1009.0 0.0
00 24.06 ЮВ 4 5000 м осадки на расстоянии 9/6 500 м
[Cb cap Ac As Ci sp]
+25.6 +24.1 91 +35 +36 очень
душно
1014.2 1011.0 +24.2 0.0 2
03 24.06 В 4 2000 м слаб. дождь 9/6 500 м
[Cb cap Ac As Ci sp]
+25.2 +23.4 90 +34 +37 очень
душно
1013.2 1009.9 0.8
06 24.06 ЮВ 5 8000 м {дождь} 9/5 540 м
[Cb cap Ac trans Ci sp]
+26.8 +23.5 82 +36 +38 очень
душно
1011.5 1008.2 0.0
09 24.06 ЮВ 4 9000 м 9/4 570 м
[Cu med, cong Ac trans Ci sp]
+25.4 +22.4 83 +33 +33 очень
душно
1012.4 1009.1
12 24.06 ЮВ 4 4000 м 9/6 540 м
[Cu Sc Ac trans Ci sp]
+25.4 +22.7 85 +33 +33 очень
душно
1014.0 1010.7 +28.8
15 24.06 ЮВ 2 5000 м 9/4 570 м
[Cu med, cong Ac trans Ci sp]
+25.0 +22.9 88 +33 +33 очень
душно
1013.8 1010.5
18 24.06 ЮВ 3 5000 м 9/4 570 м
[Cu med, cong Ac trans Ci sp]
+25.0 +22.6 87 +33 +33 очень
душно
1012.8 1009.5
21 24.06 ЮВ 3 7000 м 9/5 570 м
[Cu Sc Ac trans Ci sp]
+25.2 +22.8 87 +33 +33 очень
душно
1013.3 1010.1
00 25.06 ЮВ 6 9000 м осадки на расстоянии 9/5 540 м
[Cb cap Ac trans Ci sp]
+26.8 +23.5 82 +36 +37 очень
душно
1014.5 1011.3 +24.0 0.8
03 25.06 Ю 3 7000 м слаб. дождь 9/5 540 м
[Cb cap Ac As Ci sp]
+26.4 +23.7 85 +36 +41 очень
душно
1013.7 1010.5 0.5
06 25.06 ЮВ 3 9000 м {дождь} 9/6 570 м
[Cu Sc Ac trans Ci sp]
+27.2 +22.7 76 +36 +38 очень
душно
1011.7 1008.5 0.0
09 25.06 ЮВ 4 5000 м 9/5 570 м
[Cu Sc Ac trans Ci sp]
+25.8 +22.5 82 +34 +34 очень
душно
1012.3 1009.1
12 25.06 ЮВ 4 5000 м 9/5 570 м
[Cu Sc Ac trans Ci sp]
+25.4 +22.4 83 +33 +33 очень
душно
1013.9 1010.6 +28.4
15 25.06 ЮВ 3 5000 м 9/5 570 м
[Cu Sc Ac trans Ci sp]
+25.0 +22.6 87 +33 +33 очень
душно
1013.6 1010.4
18 25.06 В 2 4000 м 9/6 540 м
[Cu Sc Ac trans Ci sp]
+24.2 +22.0 88 +31 +31 очень
душно
1012.5 1009.2
21 25.06 ЮВ 5 8000 м 9/4 540 м
[Cu med, cong Ac trans Ci sp]
+25.2 +22.5 85 +33 +33 очень
душно
1013.2 1010.0
00 26.06 ЮВ 6 10 км 9/4 570 м
[Cu med, cong Ac trans Ci sp]
+27.2 +23.0 78 +36 +38 очень
душно
1014.2 1010.9 +24.4 0.5
03 26.06 ЮВ 7 8000 м осадки на расстоянии 9/6 540 м
[Cu Sc Ac trans Ci sp]
+12.7 +22.4 100 +10 +11 1012.4 1009.2
06 26.06 ЮВ 4 9000 м 9/5 570 м
[Cu med, cong Ac trans Ci sp]
+27.0 +21.6 72 +34 +36 очень
душно
1010.6 1007.4

 

Местоположение метеостанции Туал (Индонезия): широта -5.68 долгота 132.75 высота над уровнем моря 12 м.

В архиве по умолчанию представлена погода в Туале за последнюю неделю. Архивные данные за месяц целиком и за предыдущие месяцы, начиная с января 2011 года, Вы можете получить, выбрав интересующий диапазон дат из раскрывающегося списка и нажав кнопку "Ввод!".


*Определитесь, кто Вы:
робот инопланетянин человек

Внимание! Время в таблицах - всемирное. Для получения местного времени необходимо прибавить поправку, которая равна 9 ч.

Смотрите также архив погоды в соседних городах и на ближайших метеорологических станциях:

Погода в Каимана (Индонезия) (250 км)
Погода в Гесере (Индонезия) (298 км)
Погода в Саумлаки (Индонезия) (302 км)
Погода в Факфаке (Индонезия) (312 км)
Погода в Неира (Индонезия) (341 км)
Погода в Набире (Индонезия) (402 км)
Погода в Энаротали (Индонезия) (446 км)
Погода в Амахаи (Индонезия) (501 км)
Погода в Коконао (Индонезия) (526 км)
Погода в Маноквари (Индонезия) (553 км)

Пояснения к столбцам:

Ветер - указаны скорость ветра в м/с - средняя за 10 мин, порывы в срок и между сроками (в фигурных скобках) и направление, откуда дует ветер: С - северный, СВ - северо-восточный, В - восточный, ЮВ - юго-восточный, Ю - южный, ЮЗ - юго-западный, З - западный, СЗ - северо-западный.
Видимость - горизонтальная дальность видимости в метрах или километрах. При видимости от 1 до 10 км при отсутствии осадков обычно наблюдается дымка, при ухудшении видимости до 1 км и менее - туман. В сухую погоду видимость может ухудшаться дымом, пылью или мглою.
Явления - указаны атмосферные явления, наблюдавшиеся в срок или в последний час перед сроком; фигурными скобками обозначены явления, наблюдавшиеся между сроками (за 1-3 часа до срока); квадратными скобками обозначены град или гололедные отложения с указанием их диаметра в мм.
Облачность - указаны через наклонную черту общая и нижняя облачность в баллах и высота нижней границы облаков в метрах; квадратными скобками обозначены формы облаков: Ci - перистые, Cs - перисто-слоистые, Cc - перисто-кучевые, Ac - высококучевые, As - высокослоистые, Sc - слоисто-кучевые, Ns - слоисто-дождевые, Cu - кучевые, Cb - кучево-дождевые. Подробнее классификацию облаков см. в Атласе облаков (PDF).
T - Температура воздуха - температура, измеренная на высоте 2 м над землей.
Td - Температура точки росы - температура, при понижении до которой содержащийся в воздухе водяной пар достигнет насыщения.
f - Относительная влажность воздуха - влажноcть воздуха, измеренная на высоте 2 м над землей.
Te - Эффективная температура - температура, которую ощущает одетый по сезону человек в тени. Характеристика душности погоды. При расчете учитывается влияние влажности воздуха и скорости ветра на теплоощущения человека.
Tes - Эффективная температура на солнце - температура, которую ощущает человек, с поправкой на солнечный нагрев. Характеристика знойности погоды. Зависит от высоты солнца над горизонтом, облачности и скорости ветра. Ночью, в пасмурную погоду, а также при ветре 12 м/с и более поправка равна нулю.
P - Атмосферное давление - приведенное к уровню моря атмосферное давление.
Po - Атмосферное давление - измеренное на уровне метеостанции атмосферное давление.
Tmin - Минимальная температура - минимум температуры воздуха на высоте 2 м над землей.
Tmax - Максимальная температура - максимум температуры воздуха на высоте 2 м над землей.
R - Количество осадков - Количество выпавших осадков за период времени, мм. При наведении курсора мыши на число - период времени, за который выпало указанное количество осадков.
R24 - Количество осадков - Количество выпавших осадков за 24 часа, мм.
S - Снежный покров - Высота снежного покрова, см. При наведении курсора мыши на число - состояние снежного покрова и степень покрытия местности в баллах.